Vancouver, WA
on Tuesday, December 4, 2012

Tuesday
Previous Day Next Day
Daily Summary
 ActualAverageRecord
Temperature
Mean Temperature °F 42°F  
Max Temperature 56°F 48°F 63°F (2007)
Min Temperature 47°F 36°F 19°F (2013)
Degree Days
Heating Degree Days 13    
Month to date heating degree days 57  
Since 1 July heating degree days 879  
Cooling Degree Days 0    
Month to date cooling degree days 0  
Year to date cooling degree days 398  
Moisture
Dew Point 49°F   
Average Humidity 90    
Maximum Humidity 100    
Minimum Humidity 80    
Precipitation
Precipitation 0.85 in 0.19 in 1.44 in (1975)
Month to date precipitation 2.19 0.80  
Year to date precipitation 40.51 33.17  
Snow
Snow 0.00 in in in ()
Snow Depth 0.00 in   
Wind
Wind Speed 3 mph   
Max Wind Speed 15 mph   
Max Gust Speed 23 mph   
Visibility 6 miles   
Events Rain   

Key: T is trace of precipitation, MM is missing value
Source: NWS Daily Summary
Time(PST)TemperatureDew PointHumidity Pressure Visibility Wind DirectionWind SpeedGust SpeedPrecipitationEvents Conditions
12:53 AM 46.9°F 44.1°F 90% 29.63 in 6.0 miles SE 4.6 mph - 0.17 in Rain Rain
1:43 AM 46.4°F 44.6°F 93% 29.62 in 4.0 miles ESE 13.8 mph 18.4 mph 0.06 in Rain Light Rain
1:53 AM 48.0°F 45.0°F 89% 29.63 in 4.0 miles SE 8.1 mph - 0.08 in Rain Light Rain
2:34 AM 50.0°F 46.4°F 87% 29.64 in 6.0 miles SSE 8.1 mph - 0.02 in Rain Light Rain
2:41 AM 50.0°F 46.4°F 87% 29.64 in 8.0 miles South 9.2 mph 18.4 mph 0.02 in Rain Light Rain
2:53 AM 51.1°F 46.9°F 86% 29.65 in 10.0 miles South 10.4 mph 23.0 mph 0.02 in Rain Light Rain
3:22 AM 51.8°F 48.2°F 88% 29.66 in 10.0 miles Variable 4.6 mph 16.1 mph 0.00 in   Overcast
3:53 AM 53.1°F 48.0°F 83% 29.68 in 10.0 miles SSE 4.6 mph - 0.00 in   Overcast
4:53 AM 53.1°F 48.9°F 86% 29.70 in 10.0 miles SE 8.1 mph - N/A   Overcast
5:09 AM 53.6°F 50.0°F 88% 29.70 in 10.0 miles SE 8.1 mph - N/A   Overcast
5:20 AM 53.6°F 50.0°F 88% 29.71 in 10.0 miles ESE 8.1 mph - N/A   Overcast
5:29 AM 53.6°F 50.0°F 88% 29.71 in 10.0 miles ESE 6.9 mph - N/A   Overcast
5:53 AM 53.1°F 50.0°F 89% 29.72 in 10.0 miles ESE 8.1 mph - N/A   Overcast
6:53 AM 53.1°F 50.0°F 89% 29.74 in 10.0 miles East 6.9 mph - N/A   Overcast
7:00 AM 53.6°F 50.0°F 88% 29.74 in 10.0 miles ESE 4.6 mph - N/A   Overcast
7:53 AM 55.0°F 51.1°F 86% 29.76 in 10.0 miles SSE 3.5 mph - N/A   Overcast
8:53 AM 55.9°F 51.1°F 84% 29.80 in 10.0 miles SSE 3.5 mph - 0.00 in Rain Light Rain
9:31 AM 55.4°F 51.8°F 88% 29.81 in 2.0 miles Variable 3.5 mph - 0.02 in Rain Light Rain
10:01 AM 55.4°F 51.8°F 88% 29.83 in 5.0 miles Calm Calm - 0.01 in Rain Light Rain
10:19 AM 55.4°F 51.8°F 88% 29.83 in 7.0 miles South 3.5 mph - 0.01 in Rain Light Rain
10:53 AM 55.0°F 52.0°F 89% 29.83 in 5.0 miles Calm Calm - 0.02 in Rain Light Rain
10:59 AM 55.4°F 51.8°F 88% 29.83 in 5.0 miles SSE 3.5 mph - 0.00 in Rain Light Rain
11:21 AM 55.4°F 51.8°F 88% 29.82 in 3.0 miles Calm Calm - 0.01 in Rain Light Rain
11:49 AM 55.4°F 53.6°F 94% 29.81 in 9.0 miles SE 3.5 mph - 0.02 in Rain Light Rain
11:53 AM 55.0°F 52.0°F 89% 29.81 in 10.0 miles Calm Calm - 0.02 in Rain Light Rain
12:16 PM 55.4°F 53.6°F 94% 29.80 in 9.0 miles Calm Calm - 0.01 in Rain Light Rain
12:24 PM 55.4°F 51.8°F 88% 29.80 in 1.8 miles West 3.5 mph - 0.04 in Rain Rain
12:29 PM 53.6°F 51.8°F 94% 29.80 in 1.5 miles West 5.8 mph - 0.05 in Rain Light Rain
12:32 PM 53.6°F 51.8°F 94% 29.80 in 2.0 miles WNW 5.8 mph - 0.06 in Rain Rain
12:37 PM 53.6°F 51.8°F 94% 29.80 in 2.0 miles WNW 4.6 mph - 0.07 in Rain Rain
12:46 PM 53.6°F 51.8°F 94% 29.79 in 7.0 miles Calm Calm - 0.07 in Rain Light Rain
12:53 PM 54.0°F 52.0°F 93% 29.80 in 6.0 miles WNW 3.5 mph - 0.08 in Rain Light Rain
1:20 PM 53.6°F 51.8°F 94% 29.80 in 3.0 miles Calm Calm - 0.04 in Rain Light Rain
1:34 PM 53.6°F 51.8°F 94% 29.80 in 2.5 miles West 3.5 mph - 0.07 in Rain Rain
1:49 PM 53.6°F 51.8°F 94% 29.80 in 2.5 miles Calm Calm - 0.11 in Rain Rain
1:53 PM 54.0°F 51.1°F 90% 29.79 in 2.5 miles Calm Calm - 0.12 in Rain Rain
1:56 PM 53.6°F 51.8°F 94% 29.79 in 3.0 miles Calm Calm - 0.00 in Rain Light Rain
2:45 PM 53.6°F 50.0°F 88% 29.80 in 4.0 miles Calm Calm - 0.04 in Rain Rain
2:53 PM 53.1°F 50.0°F 89% 29.80 in 5.0 miles Calm Calm - 0.04 in Rain Light Rain
3:00 PM 53.6°F 51.8°F 94% 29.80 in 4.0 miles Calm Calm - 0.01 in Rain Light Rain
3:15 PM 53.6°F 50.0°F 88% 29.81 in 7.0 miles WNW 6.9 mph - 0.03 in Rain Light Rain
3:53 PM 52.0°F 46.0°F 80% 29.81 in 9.0 miles Calm Calm - 0.04 in Rain Light Rain
4:53 PM 50.0°F 46.9°F 89% 29.80 in 8.0 miles Calm Calm - 0.06 in Rain Light Rain
5:53 PM 50.0°F 46.9°F 89% 29.80 in 10.0 miles ESE 4.6 mph - 0.01 in Rain Light Rain
6:49 PM 48.2°F 48.2°F 100% 29.81 in 3.0 miles SE 3.5 mph - 0.08 in Rain Light Rain
6:53 PM 48.9°F 48.0°F 97% 29.81 in 3.0 miles Calm Calm - 0.09 in Rain Rain
7:17 PM 48.2°F 48.2°F 100% 29.81 in 5.0 miles ESE 4.6 mph - 0.02 in Rain Light Rain
7:41 PM 48.2°F 48.2°F 100% 29.81 in 9.0 miles East 3.5 mph - 0.04 in Rain Light Rain
7:51 PM 48.2°F 48.2°F 100% 29.82 in 7.0 miles Calm Calm - 0.05 in Rain Light Rain
7:53 PM 50.0°F 48.0°F 93% 29.82 in 6.0 miles Calm Calm - 0.05 in Rain Light Rain
8:02 PM 50.0°F 48.2°F 94% 29.82 in 7.0 miles Calm Calm - 0.00 in Rain Light Rain
8:42 PM 48.2°F 48.2°F 100% 29.84 in 8.0 miles Calm Calm - 0.01 in Rain Light Rain
8:53 PM 48.9°F 48.0°F 97% 29.86 in 6.0 miles Calm Calm - 0.01 in Rain Light Rain
9:05 PM 50.0°F 48.2°F 94% 29.85 in 5.0 miles Calm Calm - 0.01 in Rain Light Rain
9:13 PM 50.0°F 48.2°F 94% 29.85 in 6.0 miles Calm Calm - 0.01 in Rain Light Rain
9:53 PM 48.9°F 48.0°F 97% 29.88 in 6.0 miles Calm Calm - 0.01 in   Overcast
10:53 PM 48.9°F 46.9°F 93% 29.92 in 2.5 miles Calm Calm - N/A   Overcast
11:04 PM 48.2°F 46.4°F 93% 29.93 in 4.0 miles Calm Calm - N/A   Overcast
11:53 PM 48.9°F 46.9°F 93% 29.97 in 9.0 miles Calm Calm - N/A   Mostly Cloudy
Moon Phase
Dec. 04 Dec. 06 Dec. 13 Dec. 20 Dec. 28
Sunrise:07:34 AM (PST) Moon Rise:10:32 PM (PST)12/4
Sunset:04:27 PM (PST) Moon Set:11:20 AM (PST)12/4

Copyright © 2014 The Weather Underground, Inc.